Tracking 35237 objects as of 6-Sep-2026
HD Live streaming from Space Station
objects crossing your sky now

ARIANE 42L R/B


ARIANE 42L R/B is no longer on orbit


NORAD ID: 25586
Int'l Code: 1998-075B
Launch date: December 22, 1998
Source: France (FR)
Launch site: FRENCH GUIANA (FRGUI)
Decay date: 2021-06-17

Note: This is a ROCKET BODY
Your satellite tracking list
Your tracking list is empty




NASA's NSSDC Master Catalog

Two Line Element Set (TLE):
1 25586U 98075B   21167.88567126  .48918924 -34732-4  16255-2 0  9995
2 25586   7.4717 277.7280 0085798 357.6918 111.8858 16.30666521313716
Source of the keplerian elements: AFSPC